Weather History for Gainesville, FL

Change the Weather History Date:

Friday, June 7, 2013

  Actual Average Record
Temperature  
Mean Temperature 80 °F 79 °F  
Max Temperature 89 °F 90 °F 99 °F (1985)
Min Temperature 70 °F 68 °F 58 °F (1926)
Degree Days  
Heating Degree Days 0 0  
Month to date heating degree days 0 0  
Since 1 June heating degree days 0 0  
Since 1 July heating degree days 1040 1218  
Cooling Degree Days 15 14  
Month to date cooling degree days 101 94  
Year to date cooling degree days 633 604  
Since 1 June cooling degree days 101 94  
Growing Degree Days 29 (Base 50)    
Moisture  
Dew Point 69 °F    
Average Humidity 75    
Maximum Humidity 97    
Minimum Humidity 53    
Precipitation  
Precipitation 0.02 in 0.19 in 1.50 in (1912)
Month to date precipitation 4.06 1.29  
Year to date precipitation 15.06 17.28  
Snow  
Snow 0.00 in 0.00 in 0.00 in ()
Month to date snowfall 0.0 0.0  
Since 1 June snowfall 0.0 0.0  
Since 1 July snowfall 0.0 0.0  
Snow Depth 0.00 in    
Sea Level Pressure  
Sea Level Pressure 29.83 in    
Wind  
Wind Speed 10 mph (SW)    
Max Wind Speed 18 mph    
Max Gust Speed 23 mph    
Visibility 10 miles    
Events      
T = Trace of Precipitation, MM = Missing Value Source: NWS Daily Summary

Daily Weather History Graph

Daily Weather History Graph

Search for Another Location

Airport:

Trip Planner

Search our weather history database for the weather conditions in past years. The results will help you decide how hot, cold, wet, or windy it might be!

Date:

Astronomy

Jun. 07, 2013 Rise Set
Actual Time 6:28 AM EDT 8:27 PM EDT
Civil Twilight 6:01 AM EDT 8:55 PM EDT
Nautical Twilight 5:28 AM EDT 9:28 PM EDT
Astronomical Twilight 4:53 AM EDT 10:03 PM EDT
Moon 5:45 AM EDT (6/7) 7:45 PM EDT (6/7)
Length of Visible Light 14h 54m
Length of Day
13h 59m
Waning Crescent, 1% of the Moon is Illuminated
Jun 7
Waning Crescent
Jun 8
New
Jun 16
First Quarter
Jun 23
Full
Jun 30
Last Quarter

Hourly Weather History & Observations

Time (EDT) Temp. Heat Index Dew Point Humidity Pressure Visibility Wind Dir Wind Speed Gust Speed Precip Events Conditions
12:02 AM 73.4 °F - 71.6 °F 94% 29.67 in 10.0 mi WSW 15.0 mph - N/A   Overcast
12:53 AM 73.0 °F - 70.0 °F 90% 29.69 in 6.0 mi WSW 18.4 mph 27.6 mph N/A   Overcast
1:53 AM 72.0 °F - 69.1 °F 91% 29.71 in 8.0 mi WSW 16.1 mph 20.7 mph 0.01 in   Overcast
2:29 AM 71.6 °F - 69.8 °F 94% 29.72 in 10.0 mi WSW 13.8 mph - N/A   Overcast
2:53 AM 72.0 °F - 69.1 °F 91% 29.72 in 10.0 mi WSW 11.5 mph - N/A   Overcast
3:30 AM 71.6 °F - 69.8 °F 94% 29.74 in 10.0 mi WSW 9.2 mph - N/A   Overcast
3:53 AM 72.0 °F - 68.0 °F 87% 29.73 in 10.0 mi WSW 12.7 mph - N/A   Overcast
4:25 AM 71.6 °F - 68.0 °F 88% 29.74 in 10.0 mi WSW 9.2 mph - N/A   Scattered Clouds
4:53 AM 70.0 °F - 68.0 °F 93% 29.75 in 10.0 mi West 5.8 mph - N/A   Clear
5:53 AM 70.0 °F - 66.9 °F 90% 29.78 in 10.0 mi WSW 5.8 mph - N/A   Clear
6:53 AM 71.1 °F - 68.0 °F 90% 29.80 in 10.0 mi WSW 6.9 mph - N/A   Clear
7:53 AM 73.9 °F - 70.0 °F 87% 29.83 in 10.0 mi WSW 8.1 mph - N/A   Clear
8:53 AM 77.0 °F - 71.1 °F 82% 29.85 in 10.0 mi West 11.5 mph - N/A   Partly Cloudy
9:31 AM 78.8 °F - 71.6 °F 78% 29.87 in 10.0 mi WSW 10.4 mph - N/A   Mostly Cloudy
9:53 AM 81.0 °F 84.9 °F 71.1 °F 72% 29.87 in 10.0 mi West 10.4 mph 17.3 mph N/A   Mostly Cloudy
10:53 AM 82.9 °F 87.0 °F 70.0 °F 65% 29.88 in 10.0 mi SW 12.7 mph 19.6 mph N/A   Mostly Cloudy
11:00 AM 82.4 °F 86.3 °F 69.8 °F 66% 29.89 in 10.0 mi WSW 11.5 mph - N/A   Mostly Cloudy
11:53 AM 84.9 °F 90.1 °F 71.1 °F 63% 29.88 in 10.0 mi SW 8.1 mph - N/A   Scattered Clouds
12:53 PM 88.0 °F 92.1 °F 69.1 °F 53% 29.88 in 10.0 mi WSW 10.4 mph 20.7 mph N/A   Scattered Clouds
1:53 PM 84.0 °F 88.4 °F 70.0 °F 63% 29.88 in 10.0 mi SW 13.8 mph 18.4 mph N/A   Mostly Cloudy
2:53 PM 87.1 °F 92.0 °F 70.0 °F 57% 29.87 in 10.0 mi WSW 13.8 mph 20.7 mph 0.01 in   Scattered Clouds
3:53 PM 88.0 °F 91.4 °F 68.0 °F 51% 29.86 in 10.0 mi WSW 16.1 mph 19.6 mph N/A   Clear
4:53 PM 88.0 °F 91.4 °F 68.0 °F 51% 29.86 in 10.0 mi SW 9.2 mph 18.4 mph N/A   Mostly Cloudy
5:53 PM 86.0 °F 90.1 °F 69.1 °F 57% 29.86 in 10.0 mi SW 12.7 mph - N/A   Partly Cloudy
6:53 PM 84.0 °F 87.0 °F 68.0 °F 58% 29.86 in 10.0 mi South 11.5 mph 19.6 mph N/A   Scattered Clouds
7:53 PM 82.9 °F 85.8 °F 68.0 °F 60% 29.89 in 10.0 mi SSW 9.2 mph - N/A   Clear
8:53 PM 80.1 °F 82.7 °F 68.0 °F 67% 29.91 in 10.0 mi SW 8.1 mph - N/A   Clear
9:53 PM 78.1 °F - 70.0 °F 76% 29.92 in 10.0 mi SSW 5.8 mph - N/A   Clear
10:53 PM 77.0 °F - 71.1 °F 82% 29.94 in 10.0 mi SSW 5.8 mph - N/A   Clear
11:53 PM 75.9 °F - 72.0 °F 87% 29.94 in 10.0 mi SW 5.8 mph - N/A   Clear